When you browse on this site, cookies collect data to enhance your experience and personalize the content and advertising you see.
Visit our Privacy Policy to learn more. By continuing to use the site, you agree to this use of cookies and data.
  • In Switzerland
  • List of Countries
  • For 7 days
  • Water Temperature
  • Weather Map
  • Weather Widgets
  • user-avatar
    Login

    Hourly Weather Xinyi

    Today, 28 May, Thursday

    Time Temperature Precipitation Wind Pressure Humidity
    00:00 +27°C° 0.1 mm 1 mps 749 mmHg 86%
    01:00 +25°C° 0 mm 0 mps 749 mmHg 85%
    02:00 +25°C° 0 mm 0 mps 749 mmHg 85%
    03:00 +25°C° 0 mm 0 mps 749 mmHg 85%
    04:00 +24°C° 0 mm 0 mps 748 mmHg 85%
    05:00 +25°C° 0 mm 0 mps 749 mmHg 83%
    06:00 +26°C° 0 mm 0 mps 749 mmHg 80%
    07:00 +27°C° 0 mm 0 mps 750 mmHg 78%
    08:00 +28°C° 0.1 mm 0 mps 750 mmHg 75%
    09:00 +30°C° 0.1 mm 0 mps 750 mmHg 71%
    10:00 +31°C° 0.1 mm 0 mps 750 mmHg 68%
    11:00 +33°C° 2.3 mm 1 mps 749 mmHg 70%
    12:00 +33°C° 2.3 mm 1 mps 749 mmHg 71%
    13:00 +34°C° 2.3 mm 2 mps 748 mmHg 73%
    14:00 +32°C° 2.5 mm 1 mps 748 mmHg 75%
    15:00 +31°C° 2.5 mm 1 mps 748 mmHg 78%
    16:00 +29°C° 2.5 mm 0 mps 747 mmHg 80%
    17:00 +28°C° 0.1 mm 0 mps 747 mmHg 82%
    18:00 +29°C° 0.1 mm 1 mps 748 mmHg 83%
    19:00 +29°C° 0.1 mm 1 mps 748 mmHg 85%
    20:00 +27°C° 0.2 mm 0 mps 748 mmHg 86%
    21:00 +26°C° 0.2 mm 0 mps 749 mmHg 86%
    22:00 +26°C° 0.2 mm 0 mps 749 mmHg 87%
    23:00 +26°C° 0 mm 0 mps 749 mmHg 89%

    Tomorrow, 29 May, Friday

    Time Temperature Precipitation Wind Pressure Humidity
    00:00 +25°C° 0 mm 0 mps 749 mmHg 91%
    01:00 +25°C° 0 mm 0 mps 748 mmHg 93%
    02:00 +25°C° 0 mm 0 mps 748 mmHg 93%
    03:00 +25°C° 0 mm 0 mps 748 mmHg 94%
    04:00 +24°C° 0 mm 0 mps 748 mmHg 95%
    05:00 +25°C° 0 mm 0 mps 748 mmHg 92%
    06:00 +26°C° 0 mm 0 mps 748 mmHg 89%
    07:00 +29°C° 0 mm 1 mps 749 mmHg 86%
    08:00 +30°C° 0.7 mm 1 mps 749 mmHg 83%
    09:00 +31°C° 0.7 mm 2 mps 749 mmHg 79%
    10:00 +33°C° 0.7 mm 3 mps 749 mmHg 75%
    11:00 +33°C° 0.5 mm 3 mps 749 mmHg 74%
    12:00 +33°C° 0.5 mm 3 mps 748 mmHg 73%
    13:00 +33°C° 0.5 mm 3 mps 748 mmHg 72%
    14:00 +33°C° 0.2 mm 3 mps 747 mmHg 72%
    15:00 +33°C° 0.2 mm 3 mps 747 mmHg 72%
    16:00 +34°C° 0.2 mm 3 mps 746 mmHg 72%
    17:00 +31°C° 0.4 mm 3 mps 747 mmHg 76%
    18:00 +30°C° 0.4 mm 2 mps 747 mmHg 81%
    19:00 +29°C° 0.4 mm 1 mps 748 mmHg 86%
    20:00 +29°C° 0 mm 1 mps 748 mmHg 87%
    21:00 +28°C° 0 mm 1 mps 749 mmHg 89%
    22:00 +28°C° 0 mm 1 mps 749 mmHg 90%
    23:00 +28°C° 0 mm 1 mps 749 mmHg 91%

    Day after tomorrow, 30 May, Saturday

    Time Temperature Precipitation Wind Pressure Humidity
    00:00 +28°C° 0 mm 1 mps 748 mmHg 92%
    01:00 +27°C° 0 mm 1 mps 748 mmHg 93%
    02:00 +27°C° 0 mm 1 mps 748 mmHg 93%
    03:00 +27°C° 0 mm 1 mps 748 mmHg 93%
    04:00 +25°C° 0 mm 0 mps 748 mmHg 93%
    05:00 +28°C° 0 mm 1 mps 748 mmHg 88%
    06:00 +29°C° 0 mm 1 mps 749 mmHg 84%
    07:00 +30°C° 0 mm 1 mps 749 mmHg 80%
    08:00 +31°C° 1 mm 1 mps 749 mmHg 77%
    09:00 +32°C° 1 mm 2 mps 749 mmHg 74%
    10:00 +34°C° 1 mm 3 mps 749 mmHg 72%
    11:00 +34°C° 0.6 mm 3 mps 749 mmHg 70%
    12:00 +35°C° 0.6 mm 3 mps 748 mmHg 68%
    13:00 +35°C° 0.6 mm 3 mps 748 mmHg 67%
    14:00 +34°C° 3.1 mm 3 mps 748 mmHg 72%
    15:00 +32°C° 3.1 mm 2 mps 747 mmHg 77%
    16:00 +31°C° 3.1 mm 2 mps 747 mmHg 81%
    17:00 +31°C° 0.6 mm 1 mps 747 mmHg 83%
    18:00 +30°C° 0.6 mm 1 mps 748 mmHg 84%
    19:00 +29°C° 0.6 mm 1 mps 748 mmHg 86%
    20:00 +29°C° 0 mm 1 mps 748 mmHg 86%
    21:00 +28°C° 0 mm 1 mps 748 mmHg 86%
    22:00 +28°C° 0 mm 1 mps 749 mmHg 87%
    23:00 +28°C° 0.2 mm 1 mps 749 mmHg 87%

    31 May, Sunday

    Time Temperature Precipitation Wind Pressure Humidity
    00:00 +28°C° 0.2 mm 1 mps 749 mmHg 88%
    01:00 +27°C° 0.2 mm 1 mps 748 mmHg 89%
    02:00 +27°C° 0.1 mm 1 mps 748 mmHg 90%
    03:00 +25°C° 0.1 mm 0 mps 748 mmHg 91%
    04:00 +25°C° 0.1 mm 0 mps 748 mmHg 91%
    05:00 +26°C° 0 mm 0 mps 749 mmHg 89%
    06:00 +29°C° 0 mm 1 mps 749 mmHg 86%
    07:00 +30°C° 0 mm 1 mps 749 mmHg 83%
    08:00 +31°C° 0 mm 2 mps 749 mmHg 77%
    09:00 +34°C° 0 mm 2 mps 749 mmHg 71%
    10:00 +35°C° 0 mm 3 mps 749 mmHg 64%
    11:00 +35°C° 0.1 mm 4 mps 748 mmHg 65%
    12:00 +35°C° 0.1 mm 4 mps 748 mmHg 66%
    13:00 +35°C° 0.1 mm 4 mps 747 mmHg 66%
    14:00 +35°C° 0.3 mm 4 mps 747 mmHg 68%
    15:00 +35°C° 0.3 mm 4 mps 746 mmHg 69%
    16:00 +35°C° 0.3 mm 4 mps 746 mmHg 70%
    17:00 +33°C° 0 mm 3 mps 746 mmHg 75%
    18:00 +31°C° 0 mm 2 mps 746 mmHg 80%
    19:00 +30°C° 0 mm 2 mps 747 mmHg 85%
    20:00 +29°C° 0 mm 2 mps 747 mmHg 86%
    21:00 +29°C° 0 mm 2 mps 748 mmHg 87%
    22:00 +29°C° 0 mm 2 mps 748 mmHg 87%
    23:00 +28°C° 0 mm 2 mps 748 mmHg 89%

    1 June, Monday

    Time Temperature Precipitation Wind Pressure Humidity
    00:00 +28°C° 0 mm 1 mps 748 mmHg 91%
    01:00 +28°C° 0 mm 1 mps 747 mmHg 92%
    02:00 +28°C° 0 mm 1 mps 747 mmHg 93%
    03:00 +26°C° 0 mm 0 mps 747 mmHg 94%
    04:00 +26°C° 0 mm 0 mps 747 mmHg 95%
    05:00 +27°C° 0.1 mm 0 mps 748 mmHg 91%
    06:00 +30°C° 0.1 mm 1 mps 748 mmHg 87%
    07:00 +31°C° 0.1 mm 1 mps 748 mmHg 83%
    08:00 +32°C° 0.4 mm 2 mps 749 mmHg 78%
    09:00 +34°C° 0.4 mm 3 mps 749 mmHg 72%
    10:00 +35°C° 0.4 mm 4 mps 749 mmHg 67%
    11:00 +35°C° 0.1 mm 4 mps 748 mmHg 66%
    12:00 +35°C° 0.1 mm 4 mps 748 mmHg 65%
    13:00 +36°C° 0.1 mm 4 mps 747 mmHg 64%
    14:00 +35°C° 0.9 mm 4 mps 747 mmHg 67%
    15:00 +34°C° 0.9 mm 4 mps 746 mmHg 71%
    16:00 +33°C° 0.9 mm 3 mps 746 mmHg 74%
    17:00 +31°C° 0.8 mm 2 mps 746 mmHg 77%
    18:00 +30°C° 0.8 mm 1 mps 747 mmHg 81%
    19:00 +27°C° 0.8 mm 0 mps 747 mmHg 84%
    20:00 +29°C° 0.2 mm 1 mps 748 mmHg 85%
    21:00 +29°C° 0.2 mm 1 mps 748 mmHg 86%
    22:00 +29°C° 0.2 mm 1 mps 748 mmHg 86%
    23:00 +28°C° 0.9 mm 1 mps 748 mmHg 88%

    2 June, Tuesday

    Time Temperature Precipitation Wind Pressure Humidity
    00:00 +28°C° 0.9 mm 1 mps 747 mmHg 89%
    01:00 +27°C° 0.9 mm 1 mps 747 mmHg 91%
    02:00 +27°C° 0.3 mm 1 mps 747 mmHg 91%
    03:00 +27°C° 0.3 mm 1 mps 747 mmHg 91%
    04:00 +27°C° 0.3 mm 1 mps 747 mmHg 91%
    05:00 +28°C° 0.2 mm 1 mps 747 mmHg 88%
    06:00 +29°C° 0.2 mm 1 mps 747 mmHg 85%
    07:00 +30°C° 0.2 mm 1 mps 747 mmHg 81%
    08:00 +31°C° 0.3 mm 2 mps 747 mmHg 77%
    09:00 +33°C° 0.3 mm 3 mps 748 mmHg 73%
    10:00 +34°C° 0.3 mm 4 mps 748 mmHg 69%
    11:00 +34°C° 0.1 mm 5 mps 747 mmHg 68%
    12:00 +35°C° 0.1 mm 5 mps 747 mmHg 68%
    13:00 +35°C° 0.1 mm 6 mps 746 mmHg 67%
    14:00 +34°C° 0.3 mm 5 mps 746 mmHg 69%
    15:00 +34°C° 0.3 mm 5 mps 745 mmHg 71%
    16:00 +33°C° 0.3 mm 5 mps 745 mmHg 73%
    17:00 +32°C° 0.6 mm 4 mps 745 mmHg 77%
    18:00 +30°C° 0.6 mm 3 mps 746 mmHg 81%
    19:00 +29°C° 0.6 mm 2 mps 746 mmHg 86%
    20:00 +29°C° 0.3 mm 2 mps 746 mmHg 86%
    21:00 +28°C° 0.3 mm 1 mps 747 mmHg 87%
    22:00 +28°C° 0.3 mm 1 mps 747 mmHg 87%
    23:00 +28°C° 0.3 mm 1 mps 747 mmHg 88%
    Show more